Location: Nebraska Star Party
(42.6000°N, 100.8833°W)
Time: 14:08:09
(UTC-05:00)

Amateur Radio Satellites - All Passes

Search period start: 19 April 2015 13:38
Search period end: 20 April 2015 13:38
Location: Nebraska Star Party, 42.6000°N, 100.8833°W

Satellite Date Start Highest point End Downlink Frequencies (MHz)
Time Altitude Azimuth
VELOX 1 19 Apr 13:39:10 13:42:54 27° 292° (WNW) 13:46:35 145.980
Cosmos 2504 19 Apr 13:48:01 13:53:57 21° 80° (E) 14:00:18 435.465 / 435.565
AIST 1 19 Apr 13:53:52 13:58:08 75° 264° (W) 14:02:22
AISAT 19 Apr 13:54:36 13:57:46 19° 295° (WNW) 14:00:50 437.250
SO-50 19 Apr 13:58:01 14:02:16 37° 116° (ESE) 14:06:42 436.795
CUBEBUG 1 19 Apr 14:05:23 14:09:06 27° 291° (WNW) 14:12:46 437.445
50 SAT 19 Apr 14:05:57 14:07:27 12° 297° (WNW) 14:08:46 437.505
ESTCUBE 1 19 Apr 14:08:27 14:12:07 24° 293° (WNW) 14:15:42 437.505/2401.250
ITUPSAT 1 19 Apr 14:11:49 14:13:40 12° 88° (E) 14:15:47 437.325
TISAT 1 19 Apr 14:13:31 14:17:47 83° 102° (ESE) 14:22:02 437.305
SPROUT 19 Apr 14:17:03 14:21:22 72° 284° (WNW) 14:25:39 437.525
YUBILEINY 19 Apr 14:24:02 14:31:40 30° 294° (WNW) 14:39:05 435.215
ISS 19 Apr 14:34:04 14:35:54 14° 132° (SE) 14:37:48 145.825
AO-7 19 Apr 14:38:34 14:43:10 17° 48° (NE) 14:48:08 29.400- 29.500
BEESAT 2 19 Apr 14:42:31 14:46:38 70° 239° (WSW) 14:50:41 435.950
BEESAT 19 Apr 14:45:31 14:49:37 28° 95° (E) 14:53:44 436.000
SWISSCUBE 19 Apr 14:46:43 14:50:56 31° 96° (E) 14:55:11 437.505
Oscar 19 19 Apr 14:47:31 14:52:32 54° 260° (W) 14:57:37 437.125/150
BEESAT 3 19 Apr 14:50:21 14:54:19 47° 242° (WSW) 14:58:12 437.485
Gurwin Techsat 1B 19 Apr 14:55:08 15:00:13 50° 71° (ENE) 15:05:22 435.225
RS-15 19 Apr 14:56:52 15:04:07 22° 102° (ESE) 15:12:01 29.354- 29.394
AIST 2 19 Apr 14:59:41 15:03:54 59° 53° (NE) 15:08:02 435.215
ITAMSAT 1 19 Apr 15:06:20 15:11:30 74° 74° (ENE) 15:16:42 435.822/435.867
Cosmos 2504 19 Apr 15:37:34 15:46:26 85° 280° (W) 15:55:21 435.465 / 435.565
SO-50 19 Apr 15:38:41 15:42:53 31° 315° (NW) 15:47:11 436.795
ITUPSAT 1 19 Apr 15:47:25 15:52:11 71° 286° (WNW) 15:56:54 437.325
TISAT 1 19 Apr 15:52:39 15:53:00 10° 298° (WNW) 15:53:07 437.305
JAS-2 19 Apr 15:58:35 16:05:36 39° 66° (ENE) 16:12:41 435.910
ISS 19 Apr 16:08:40 16:11:55 71° 327° (NNW) 16:15:12 145.825
STARS 19 Apr 16:09:13 16:12:49 24° 94° (E) 16:16:30 437.465
HORYU 2 19 Apr 16:15:21 16:19:46 62° 74° (ENE) 16:24:14 437.375
BEESAT 19 Apr 16:23:14 16:27:28 32° 292° (WNW) 16:31:38 436.000
SWISSCUBE 19 Apr 16:24:39 16:28:46 29° 292° (WNW) 16:32:47 437.505
AO-7 19 Apr 16:26:28 16:34:38 68° 68° (ENE) 16:42:52 29.400- 29.500
KKS-1 19 Apr 16:33:32 16:38:02 70° 102° (ESE) 16:42:31 437.445
Gurwin Techsat 1B 19 Apr 16:36:26 16:40:32 22° 269° (W) 16:44:30 435.225
AIST 2 19 Apr 16:39:42 16:42:03 14° 250° (WSW) 16:44:14 435.215
ITAMSAT 1 19 Apr 16:48:57 16:51:40 14° 272° (W) 16:54:07 435.822/435.867
GONETS M04 19 Apr 16:50:21 16:56:03 21° 80° (E) 17:02:14
RS-15 19 Apr 17:04:12 17:15:06 88° 121° (ESE) 17:26:18 29.354- 29.394
Cosmos 2504 19 Apr 17:35:05 17:41:22 20° 301° (WNW) 17:47:15 435.465 / 435.565
JAS-2 19 Apr 17:42:54 17:50:26 50° 263° (W) 17:57:58 435.910
STARS 19 Apr 17:45:21 17:49:21 32° 291° (WNW) 17:53:17 437.465
ISS 19 Apr 17:46:12 17:48:44 20° 347° (NNW) 17:51:15 145.825
MOZHAYETS 4 19 Apr 17:47:19 17:51:19 29° 94° (E) 17:55:19
HORYU 2 19 Apr 17:54:41 17:56:55 13° 271° (W) 17:58:56 437.375
KKS-1 19 Apr 18:12:01 18:14:10 13° 298° (WNW) 18:16:07 437.445
CUSAT 1 19 Apr 18:12:29 18:13:16 11° 82° (E) 18:14:16 437.405
AO-7 19 Apr 18:21:16 18:28:09 27° 267° (W) 18:34:48 29.400- 29.500
Cosmos 2499 19 Apr 18:31:54 18:36:13 16° 77° (ENE) 18:41:07 435.465 / 435.565
GONETS M04 19 Apr 18:43:10 18:51:56 84° 278° (W) 19:00:49
CUTE-I 19 Apr 18:44:30 18:49:38 52° 71° (ENE) 18:54:49 437.470
PCSat 19 Apr 18:51:40 18:56:14 27° 46° (NE) 19:00:50 145.827
Cubesat XI-IV 19 Apr 18:51:54 18:57:08 61° 72° (ENE) 19:02:25 437.490
CUBESAT XI-V 19 Apr 19:05:30 19:08:06 15° 89° (E) 19:10:55 437.345
RS-15 19 Apr 19:19:20 19:29:07 34° 330° (NNW) 19:39:02 29.354- 29.394
PRISM 19 Apr 19:21:48 19:23:22 12° 89° (E) 19:25:09 437.425
ISS 19 Apr 19:23:39 19:25:57 18° 7° (N) 19:28:16 145.825
AUBIESAT-1 19 Apr 19:23:53 19:27:27 25° 98° (E) 19:30:52 437.475
MOZHAYETS 4 19 Apr 19:24:31 19:28:31 29° 291° (WNW) 19:32:26
STRAND 1 19 Apr 19:42:13 19:45:39 19° 91° (E) 19:49:15 437.568
HO-68 19 Apr 19:44:33 19:48:53 18° 54° (NE) 19:53:32 435.675
DANDE 19 Apr 19:47:32 19:50:23 54° 284° (WNW) 19:53:59 436.750
CUSAT 1 19 Apr 19:52:27 19:55:22 33° 289° (WNW) 19:59:01 437.405
M-CUBED/EXP-1 PRIME 19 Apr 20:09:12 20:13:43 90° 107° (ESE) 20:17:50 437.505
VERMONT LUNAR 19 Apr 20:16:44 20:19:16 20° 154° (SSE) 20:21:49 437.305
Cosmos 2499 19 Apr 20:19:20 20:28:10 76° 95° (E) 20:36:57 435.465 / 435.565
CUTE-I 19 Apr 20:26:02 20:30:04 21° 269° (W) 20:33:58 437.470
Cubesat XI-IV 19 Apr 20:34:06 20:37:45 18° 270° (W) 20:41:11 437.490
PCSat 19 Apr 20:34:41 20:39:57 51° 246° (WSW) 20:45:10 145.827
CUBESAT XI-V 19 Apr 20:41:28 20:45:58 54° 287° (WNW) 20:50:27 437.345
GONETS M04 19 Apr 20:44:32 20:50:28 18° 302° (WNW) 20:56:00
SO-50 19 Apr 20:50:16 20:51:20 11° 27° (NNE) 20:52:34 436.795
COMPASS 1 19 Apr 20:54:39 20:57:35 19° 67° (ENE) 21:00:38 437.405
PRISM 19 Apr 20:55:14 20:59:17 56° 287° (WNW) 21:03:17 437.425
AUBIESAT-1 19 Apr 20:58:22 21:02:19 31° 297° (WNW) 21:05:57 437.475
ISS 19 Apr 20:59:48 21:02:56 42° 26° (NNE) 21:06:03 145.825
CANX-2 19 Apr 21:05:19 21:09:17 38° 71° (ENE) 21:13:19 2200.000
CINEMA 3 19 Apr 21:05:34 21:08:11 16° 64° (ENE) 21:11:01 145.822/145.860
DOVE 4 19 Apr 21:07:38 21:11:18 31° 70° (ENE) 21:15:10 437.250
SEEDS 19 Apr 21:08:34 21:12:19 32° 70° (ENE) 21:16:09 437.485
BRITE-PL 19 Apr 21:14:10 21:18:19 90° 113° (ESE) 21:22:31 437.365/2234.400
CUTE 1.7 + AOD 2 19 Apr 21:15:23 21:19:28 45° 73° (ENE) 21:23:36 437.475
PHONESAT 2.4 19 Apr 21:15:59 21:18:46 21° 154° (SSE) 21:21:35 2401.200-2431.200
STRAND 1 19 Apr 21:20:17 21:25:15 54° 289° (WNW) 21:30:12 437.568
HO-68 19 Apr 21:28:30 21:35:41 83° 73° (ENE) 21:42:56 435.675
GOMX 1 19 Apr 21:35:59 21:40:08 82° 258° (WSW) 21:44:24 467.674
RS-15 19 Apr 21:37:41 21:46:06 23° 4° (N) 21:54:49 29.354- 29.394
AAUSAT CUBESAT 2 19 Apr 21:41:37 21:45:42 51° 74° (ENE) 21:49:50 437.432
ZACube-1 19 Apr 21:44:25 21:46:51 15° 64° (ENE) 21:49:28 437.345
M-CUBED/EXP-1 PRIME 19 Apr 21:46:21 21:47:50 11° 306° (NW) 21:49:06 437.505
CUBEBUG 2 19 Apr 21:48:54 21:52:22 25° 68° (ENE) 21:56:01 437.445
VERMONT LUNAR 19 Apr 21:53:07 21:56:26 51° 170° (S) 21:59:44 437.305
Oscar 11 19 Apr 21:57:56 22:01:56 37° 71° (ENE) 22:05:59 145.826/435.025
DELFI C3 19 Apr 22:00:55 22:04:27 29° 70° (ENE) 22:08:02 145.870
Cosmos 2499 19 Apr 22:15:05 22:22:19 26° 296° (WNW) 22:29:11 435.465 / 435.565
DX 1 19 Apr 22:20:39 22:24:09 25° 67° (ENE) 22:27:44 434.975-435.025
UWE-3 19 Apr 22:28:27 22:32:36 53° 73° (ENE) 22:36:56 435.000/436.395/437.385
SO-50 19 Apr 22:28:28 22:33:14 44° 49° (NE) 22:37:57 436.795
COMPASS 1 19 Apr 22:29:01 22:33:01 40° 263° (W) 22:37:02 437.405
Cosmos 2491 19 Apr 22:29:58 22:31:39 11° 74° (ENE) 22:34:04 435.465 / 435.565
HUMSAT D 19 Apr 22:32:43 22:36:01 23° 68° (ENE) 22:39:27 437.325/437.525
YUBILEINY 19 Apr 22:35:11 22:42:45 32° 67° (ENE) 22:50:26 435.215
ISS 19 Apr 22:36:25 22:39:12 26° 224° (SW) 22:41:56 145.825
CINEMA 3 19 Apr 22:40:56 22:45:02 48° 262° (W) 22:49:18 145.822/145.860
CANX-2 19 Apr 22:42:15 22:45:24 19° 269° (W) 22:48:28 2200.000
SEEDS 19 Apr 22:44:44 22:48:12 23° 267° (W) 22:51:35 437.485
DOVE 4 19 Apr 22:45:56 22:49:13 22° 268° (W) 22:52:31 437.250
CUTE 1.7 + AOD 2 19 Apr 22:52:50 22:55:40 17° 270° (W) 22:58:22 437.475
PHONESAT 2.4 19 Apr 22:53:10 22:56:40 53° 170° (S) 23:00:10 2401.200-2431.200
FUNcube-1 19 Apr 22:55:50 23:00:06 83° 75° (ENE) 23:04:30 145.935
VELOX 1 19 Apr 23:01:02 23:04:49 30° 69° (ENE) 23:08:42 145.980
UKube-1 19 Apr 23:12:16 23:16:36 83° 75° (ENE) 23:20:56 .
ANTELSAT 19 Apr 23:13:46 23:16:24 15° 89° (E) 23:19:13 437.575/2403.000
50 SAT 19 Apr 23:15:14 23:18:58 41° 72° (ENE) 23:22:47 437.505
AISAT 19 Apr 23:15:46 23:19:55 43° 72° (ENE) 23:24:08 437.250
ZACube-1 19 Apr 23:18:37 23:22:48 54° 261° (W) 23:27:06 437.345
AAUSAT CUBESAT 2 19 Apr 23:19:21 23:21:42 14° 271° (W) 23:23:53 437.432
HO-68 19 Apr 23:19:29 23:24:22 18° 272° (W) 23:28:55 435.675
CUBEBUG 2 19 Apr 23:25:10 23:28:58 30° 265° (W) 23:32:52 437.445
CUBEBUG 1 19 Apr 23:26:11 23:29:45 26° 68° (ENE) 23:33:23 437.445
VERMONT LUNAR 19 Apr 23:30:29 23:33:49 56° 187° (S) 23:37:08 437.305
ESTCUBE 1 19 Apr 23:31:40 23:35:44 34° 70° (ENE) 23:39:51 437.505/2401.250
Oscar 11 19 Apr 23:34:58 23:38:17 20° 268° (W) 23:41:29 145.826/435.025
DELFI C3 19 Apr 23:36:18 23:39:37 23° 266° (W) 23:42:54 145.870
RS-15 19 Apr 23:52:09 00:02:42 41° 37° (NE) 00:13:49 29.354- 29.394
NANOSAT C BR1 19 Apr 23:52:18 23:55:00 17° 91° (E) 23:57:51 145.865
POPSAT HIP 1 19 Apr 23:52:23 23:55:07 17° 91° (E) 23:58:00 437.405
DX 1 19 Apr 23:56:26 00:00:18 31° 264° (W) 00:04:09 434.975-435.025
TIGRISAT 20 Apr 00:05:57 00:10:33 49° 99° (E) 00:15:07 435.000
UNISAT 6 20 Apr 00:07:10 00:11:48 52° 100° (E) 00:16:24 437.425
UWE-3 20 Apr 00:07:10 00:09:35 14° 272° (W) 00:11:51 435.000/436.395/437.385
HUMSAT D 20 Apr 00:07:54 00:11:40 31° 265° (W) 00:15:26 437.325/437.525
SO-50 20 Apr 00:09:27 00:13:35 26° 247° (WSW) 00:17:37 436.795
POLYITAN 1 20 Apr 00:18:10 00:22:03 32° 96° (E) 00:25:58 437.675
Cosmos 2491 20 Apr 00:18:23 00:26:54 64° 93° (E) 00:35:33 435.465 / 435.565
O/OREOS (USA 219) 20 Apr 00:21:00 00:25:22 45° 108° (ESE) 00:29:45 437.305
DUCHIFAT 1 20 Apr 00:27:23 00:31:24 39° 98° (E) 00:35:25 145.980
PHONESAT 2.4 20 Apr 00:31:15 00:34:47 57° 187° (S) 00:38:18 2401.200-2431.200
YUBILEINY 20 Apr 00:31:36 00:40:10 59° 268° (W) 00:48:35 435.215
VELOX 1 20 Apr 00:37:41 00:41:24 26° 265° (W) 00:45:05 145.980
QB50P1 20 Apr 00:40:23 00:44:37 57° 100° (E) 00:48:51 145.935-145.965
ANTELSAT 20 Apr 00:48:58 00:53:38 59° 286° (WNW) 00:58:15 437.575/2403.000
50 SAT 20 Apr 00:51:33 00:54:04 16° 270° (W) 00:56:26 437.505
BUGSAT 1 20 Apr 00:51:37 00:55:38 51° 100° (E) 00:59:42 437.445
AISAT 20 Apr 00:53:45 00:56:47 18° 269° (W) 00:59:42 437.250
CUBEBUG 1 20 Apr 01:02:15 01:06:03 29° 264° (W) 01:09:50 437.445
QB50P2 20 Apr 01:04:02 01:08:20 77° 284° (WNW) 01:12:37 145.880/145.840
TISAT 1 20 Apr 01:06:17 01:10:26 67° 75° (ENE) 01:14:36 437.305
VERMONT LUNAR 20 Apr 01:08:13 01:11:02 25° 203° (SSW) 01:13:50 437.305
ESTCUBE 1 20 Apr 01:09:01 01:12:42 24° 267° (W) 01:16:19 437.505/2401.250
SPROUT 20 Apr 01:11:40 01:15:56 86° 254° (WSW) 01:20:15 437.525
ITUPSAT 1 20 Apr 01:19:04 01:22:07 18° 63° (ENE) 01:25:19 437.325
NANOSAT C BR1 20 Apr 01:27:02 01:31:06 44° 288° (WNW) 01:35:10 145.865
POPSAT HIP 1 20 Apr 01:27:11 01:31:17 44° 288° (WNW) 01:35:21 437.405
Cosmos 2504 20 Apr 01:30:35 01:38:08 38° 69° (ENE) 01:45:15 435.465 / 435.565
TIGRISAT 20 Apr 01:43:34 01:46:58 19° 295° (WNW) 01:50:13 435.000
UNISAT 6 20 Apr 01:44:55 01:48:13 18° 295° (WNW) 01:51:21 437.425
BEESAT 20 Apr 01:52:38 01:56:59 36° 69° (ENE) 02:01:22 436.000
SWISSCUBE 20 Apr 01:53:55 01:58:21 40° 70° (ENE) 02:02:50 437.505
POLYITAN 1 20 Apr 01:54:23 01:57:50 23° 293° (WNW) 02:01:13 437.675
O/OREOS (USA 219) 20 Apr 02:01:33 02:05:03 21° 306° (NW) 02:08:28 437.305
DUCHIFAT 1 20 Apr 02:03:51 02:06:59 20° 294° (WNW) 02:10:00 145.980
RS-15 20 Apr 02:04:41 02:16:11 74° 241° (WSW) 02:28:08 29.354- 29.394
PHONESAT 2.4 20 Apr 02:09:43 02:12:44 25° 203° (SSW) 02:15:43 2401.200-2431.200
Cosmos 2491 20 Apr 02:17:03 02:24:31 30° 295° (WNW) 02:31:49 435.465 / 435.565
QB50P1 20 Apr 02:17:41 02:20:05 14° 296° (WNW) 02:22:19 145.935-145.965
AIST 1 20 Apr 02:23:46 02:28:02 62° 95° (E) 02:32:18
BUGSAT 1 20 Apr 02:28:25 02:30:46 15° 295° (WNW) 02:32:57 437.445
TISAT 1 20 Apr 02:45:53 02:46:46 10° 273° (W) 02:47:25 437.305
ITUPSAT 1 20 Apr 02:54:52 02:59:37 57° 260° (W) 03:04:22 437.325
Oscar 19 20 Apr 02:58:13 03:03:17 51° 99° (E) 03:08:20 437.125/150
GONETS M04 20 Apr 03:01:16 03:01:35 10° 48° (NE) 03:02:37
STARS 20 Apr 03:07:08 03:10:37 24° 67° (ENE) 03:14:12 437.465
Gurwin Techsat 1B 20 Apr 03:11:32 03:15:06 19° 90° (E) 03:18:50 435.225
ITAMSAT 1 20 Apr 03:19:06 03:23:14 25° 93° (E) 03:27:29 435.822/435.867
Cosmos 2504 20 Apr 03:23:58 03:31:43 46° 272° (W) 03:38:52 435.465 / 435.565
BEESAT 20 Apr 03:30:55 03:34:55 25° 266° (W) 03:38:51 436.000
KKS-1 20 Apr 03:32:16 03:36:40 69° 74° (ENE) 03:41:06 437.445
SWISSCUBE 20 Apr 03:32:34 03:36:23 23° 267° (W) 03:40:07 437.505
AIST 1 20 Apr 04:04:22 04:06:13 12° 294° (WNW) 04:07:52
HORYU 2 20 Apr 04:08:23 04:09:41 11° 87° (E) 04:11:15 437.375
RS-15 20 Apr 04:19:55 04:27:01 17° 260° (W) 04:33:21 29.354- 29.394
AO-7 20 Apr 04:28:36 04:34:08 20° 89° (E) 04:40:04 29.400- 29.500
BEESAT 2 20 Apr 04:38:13 04:41:00 18° 112° (ESE) 04:43:56 435.950
Oscar 19 20 Apr 04:38:20 04:42:19 22° 296° (WNW) 04:46:11 437.125/150
DANDE 20 Apr 04:41:33 04:46:14 20° 66° (ENE) 04:51:53 436.750
STARS 20 Apr 04:43:00 04:46:58 32° 264° (W) 04:50:55 437.465
CUSAT 1 20 Apr 04:43:26 04:49:02 27° 68° (ENE) 04:55:38 437.405
BEESAT 3 20 Apr 04:44:27 04:47:47 25° 114° (ESE) 04:51:14 437.485
MOZHAYETS 4 20 Apr 04:49:57 04:53:59 30° 69° (ENE) 04:58:05
Gurwin Techsat 1B 20 Apr 04:50:18 04:55:32 58° 288° (WNW) 05:00:43 435.225
GONETS M04 20 Apr 04:52:41 05:01:16 52° 74° (ENE) 05:09:51
JAS-2 20 Apr 04:53:37 04:59:00 26° 89° (E) 05:04:02 435.910
ITAMSAT 1 20 Apr 04:58:04 05:02:56 42° 291° (WNW) 05:07:46 435.822/435.867
AIST 2 20 Apr 05:01:55 05:02:30 10° 109° (ESE) 05:03:20 435.215
KKS-1 20 Apr 05:12:20 05:13:53 11° 273° (W) 05:15:10 437.445
M-CUBED/EXP-1 PRIME 20 Apr 05:24:38 05:27:42 18° 58° (ENE) 05:30:56 437.505
HORYU 2 20 Apr 05:42:25 05:46:56 72° 286° (WNW) 05:51:24 437.375
CUBESAT XI-V 20 Apr 06:09:51 06:12:50 18° 65° (ENE) 06:15:58 437.345
AUBIESAT-1 20 Apr 06:11:20 06:15:44 40° 65° (ENE) 06:20:16 437.475
Cosmos 2499 20 Apr 06:11:26 06:17:59 27° 65° (ENE) 06:24:20 435.465 / 435.565
PRISM 20 Apr 06:13:37 06:14:57 12° 63° (ENE) 06:16:29 437.425
BEESAT 2 20 Apr 06:14:51 06:18:50 45° 309° (NW) 06:22:52 435.950
AO-7 20 Apr 06:19:42 06:28:04 86° 289° (WNW) 06:36:25 29.400- 29.500
BEESAT 3 20 Apr 06:21:57 06:25:42 33° 311° (NW) 06:29:29 437.485
DANDE 20 Apr 06:23:19 06:30:04 85° 261° (W) 06:38:20 436.750
CUSAT 1 20 Apr 06:25:17 06:32:13 69° 263° (W) 06:40:21 437.405
MOZHAYETS 4 20 Apr 06:27:10 06:31:12 28° 266° (W) 06:35:12
AIST 2 20 Apr 06:36:15 06:40:31 81° 303° (WNW) 06:44:51 435.215
JAS-2 20 Apr 06:38:00 06:44:35 52° 291° (WNW) 06:50:21 435.910
GONETS M04 20 Apr 06:50:00 06:57:53 36° 274° (W) 07:05:33
M-CUBED/EXP-1 PRIME 20 Apr 06:57:22 07:02:04 65° 254° (WSW) 07:06:54 437.505
STRAND 1 20 Apr 06:58:33 07:02:54 30° 67° (ENE) 07:07:21 437.568
CUTE-I 20 Apr 07:01:47 07:05:25 19° 90° (E) 07:09:14 437.470
Cubesat XI-IV 20 Apr 07:09:10 07:13:14 23° 92° (E) 07:17:26 437.490
CUBESAT XI-V 20 Apr 07:45:23 07:49:56 52° 261° (W) 07:54:29 437.345
PRISM 20 Apr 07:45:44 07:49:56 71° 259° (WSW) 07:54:06 437.425
AUBIESAT-1 20 Apr 07:46:45 07:50:39 25° 262° (W) 07:54:32 437.475
Cosmos 2499 20 Apr 08:03:58 08:11:52 61° 267° (W) 08:19:07 435.465 / 435.565
DANDE 20 Apr 08:08:34 08:12:58 17° 273° (W) 08:17:23 436.750
CUSAT 1 20 Apr 08:11:03 08:14:22 13° 276° (W) 08:17:18 437.405
AO-7 20 Apr 08:13:54 08:19:54 22° 308° (NW) 08:25:37 29.400- 29.500
AIST 2 20 Apr 08:17:40 08:19:51 13° 324° (NW) 08:21:55 435.215
STRAND 1 20 Apr 08:37:21 08:42:03 35° 264° (W) 08:46:41 437.568
CUTE-I 20 Apr 08:40:43 08:45:56 56° 288° (WNW) 08:51:06 437.470
Cubesat XI-IV 20 Apr 08:48:32 08:53:38 48° 290° (WNW) 08:58:42 437.490
O/OREOS (USA 219) 20 Apr 08:52:41 08:54:33 13° 48° (NE) 08:56:37 437.305
HO-68 20 Apr 08:57:57 09:01:14 14° 85° (E) 09:05:01 435.675
BRITE-PL 20 Apr 09:17:16 09:21:29 29° 95° (E) 09:26:01 437.365/2234.400
PCSat 20 Apr 09:35:33 09:39:04 18° 107° (ESE) 09:42:48 145.827
GOMX 1 20 Apr 09:36:20 09:40:38 29° 95° (E) 09:45:13 467.674
COMPASS 1 20 Apr 10:11:58 10:15:40 30° 95° (E) 10:19:24 437.405
ANTELSAT 20 Apr 10:14:05 10:16:35 15° 63° (ENE) 10:19:17 437.575/2403.000
UWE-3 20 Apr 10:19:51 10:21:14 11° 86° (E) 10:22:55 435.000/436.395/437.385
CANX-2 20 Apr 10:25:27 10:29:46 71° 101° (E) 10:34:02 2200.000
SEEDS 20 Apr 10:27:29 10:31:41 55° 100° (E) 10:35:50 437.485
Cosmos 2491 20 Apr 10:28:04 10:35:45 33° 67° (ENE) 10:43:35 435.465 / 435.565
O/OREOS (USA 219) 20 Apr 10:30:10 10:34:42 83° 248° (WSW) 10:39:10 437.305
CINEMA 3 20 Apr 10:34:30 10:39:05 38° 97° (E) 10:43:46 145.822/145.860
CUTE 1.7 + AOD 2 20 Apr 10:35:32 10:39:52 83° 100° (E) 10:44:08 437.475
DOVE 4 20 Apr 10:42:04 10:47:03 85° 102° (ESE) 10:52:16 437.250
HO-68 20 Apr 10:42:59 10:50:14 82° 105° (ESE) 10:57:25 435.675
FUNcube-1 20 Apr 10:44:40 10:47:30 17° 90° (E) 10:50:32 145.935
NANOSAT C BR1 20 Apr 10:46:28 10:48:43 15° 64° (ENE) 10:51:08 145.865
POPSAT HIP 1 20 Apr 10:46:46 10:49:04 15° 64° (ENE) 10:51:32 437.405
BRITE-PL 20 Apr 10:55:38 11:00:02 35° 289° (WNW) 11:04:41 437.365/2234.400
AAUSAT CUBESAT 2 20 Apr 10:59:25 11:03:39 89° 102° (ESE) 11:07:49 437.432
UKube-1 20 Apr 11:00:58 11:02:52 13° 89° (E) 11:05:00 .
TIGRISAT 20 Apr 11:05:22 11:09:37 46° 72° (ENE) 11:14:01 435.000
ZACube-1 20 Apr 11:06:42 11:10:39 28° 94° (E) 11:14:40 437.345
UNISAT 6 20 Apr 11:06:48 11:11:05 49° 72° (ENE) 11:15:32 437.425
POLYITAN 1 20 Apr 11:12:14 11:15:46 27° 69° (ENE) 11:19:25 437.675
GOMX 1 20 Apr 11:14:19 11:18:46 35° 290° (WNW) 11:23:26 467.674
DELFI C3 20 Apr 11:14:20 11:18:13 43° 98° (E) 11:22:05 145.870
CUBEBUG 2 20 Apr 11:14:39 11:19:18 52° 99° (E) 11:23:58 437.445
PCSat 20 Apr 11:16:39 11:22:01 65° 303° (WNW) 11:27:27 145.827
Oscar 11 20 Apr 11:20:14 11:24:36 69° 101° (ESE) 11:28:55 145.826/435.025
DUCHIFAT 1 20 Apr 11:20:41 11:24:24 32° 70° (ENE) 11:28:11 145.980
QB50P1 20 Apr 11:33:50 11:37:50 46° 72° (ENE) 11:41:55 145.935-145.965
YUBILEINY 20 Apr 11:37:18 11:44:56 36° 86° (E) 11:52:45 435.215
BUGSAT 1 20 Apr 11:42:34 11:46:18 38° 71° (ENE) 11:50:04 437.445
DX 1 20 Apr 11:43:34 11:47:40 40° 98° (E) 11:51:47 434.975-435.025
COMPASS 1 20 Apr 11:47:48 11:51:16 24° 292° (WNW) 11:54:38 437.405
ANTELSAT 20 Apr 11:48:29 11:52:55 60° 260° (W) 11:57:28 437.575/2403.000
HUMSAT D 20 Apr 11:50:54 11:54:59 39° 97° (E) 11:59:04 437.325/437.525
UWE-3 20 Apr 11:53:42 11:58:24 77° 284° (WNW) 12:03:05 435.000/436.395/437.385
QB50P2 20 Apr 11:57:27 12:01:40 87° 77° (ENE) 12:05:56 145.880/145.840
CANX-2 20 Apr 12:03:27 12:05:11 12° 297° (WNW) 12:06:42 2200.000
SEEDS 20 Apr 12:04:40 12:07:05 15° 296° (WNW) 12:09:19 437.485
CINEMA 3 20 Apr 12:12:03 12:16:07 26° 292° (WNW) 12:20:10 145.822/145.860
CUTE 1.7 + AOD 2 20 Apr 12:14:26 12:15:13 10° 298° (WNW) 12:15:44 437.475
FUNcube-1 20 Apr 12:19:43 12:24:11 51° 287° (WNW) 12:28:38 145.935
NANOSAT C BR1 20 Apr 12:20:05 12:24:11 53° 260° (W) 12:28:19 145.865
POPSAT HIP 1 20 Apr 12:20:28 12:24:34 52° 260° (W) 12:28:43 437.405
DOVE 4 20 Apr 12:21:54 12:24:16 13° 297° (WNW) 12:26:27 437.250
Cosmos 2491 20 Apr 12:24:32 12:33:09 58° 269° (W) 12:41:41 435.465 / 435.565
50 SAT 20 Apr 12:26:19 12:30:21 61° 100° (E) 12:34:21 437.505
VELOX 1 20 Apr 12:26:36 12:30:57 54° 100° (E) 12:35:19 145.980
AIST 1 20 Apr 12:31:14 12:33:55 17° 69° (ENE) 12:36:44
HO-68 20 Apr 12:31:58 12:37:15 22° 303° (WNW) 12:42:18 435.675
UKube-1 20 Apr 12:35:12 12:39:28 58° 287° (WNW) 12:43:43 .
Oscar 19 20 Apr 12:41:01 12:42:14 11° 58° (ENE) 12:43:45 437.125/150
AISAT 20 Apr 12:41:57 12:46:26 83° 105° (ESE) 12:50:53 437.250
ZACube-1 20 Apr 12:42:57 12:47:00 30° 291° (WNW) 12:50:59 437.345
TIGRISAT 20 Apr 12:43:37 12:46:41 18° 270° (W) 12:49:40 435.000
UNISAT 6 20 Apr 12:45:18 12:48:14 17° 270° (W) 12:51:04 437.425
SO-50 20 Apr 12:47:32 12:48:18 10° 107° (ESE) 12:49:23 436.795
POLYITAN 1 20 Apr 12:48:06 12:51:41 26° 266° (W) 12:55:14 437.675
CUBEBUG 1 20 Apr 12:49:45 12:53:56 46° 99° (E) 12:58:09 437.445
DELFI C3 20 Apr 12:50:29 12:53:04 16° 294° (WNW) 12:55:30 145.870
CUBEBUG 2 20 Apr 12:52:18 12:55:38 19° 295° (WNW) 12:58:51 437.445
BEESAT 2 20 Apr 12:56:13 12:59:05 18° 41° (NE) 13:02:00 435.950
DUCHIFAT 1 20 Apr 12:57:00 13:00:19 22° 267° (W) 13:03:33 145.980
Oscar 11 20 Apr 12:58:20 13:00:17 12° 297° (WNW) 13:02:01 145.826/435.025
SPROUT 20 Apr 12:58:53 13:01:29 16° 90° (E) 13:04:15 437.525
ESTCUBE 1 20 Apr 12:59:55 13:04:24 68° 101° (ESE) 13:08:52 437.505/2401.250
BEESAT 3 20 Apr 13:02:21 13:05:38 23° 44° (NE) 13:08:55 437.485
PCSat 20 Apr 13:03:48 13:06:37 14° 325° (NW) 13:09:15 145.827
QB50P1 20 Apr 13:11:25 13:14:02 15° 270° (W) 13:16:30 145.935-145.965
BUGSAT 1 20 Apr 13:19:19 13:22:00 17° 269° (W) 13:24:33 437.445
AIST 2 20 Apr 13:20:27 13:22:26 13° 36° (NE) 13:24:32 435.215
DX 1 20 Apr 13:20:28 13:23:41 20° 294° (WNW) 13:26:47 434.975-435.025
HUMSAT D 20 Apr 13:27:16 13:30:31 20° 293° (WNW) 13:33:39 437.325/437.525
